This is the latest recevied weather packets stored in our database for station/object SP5EB-3. If no packets are shown the sender has not sent any weather packets the latest 10 day(s).
| Time | Temp. | Humidity | Pressure | Rain* | Wind** | Luminosity | Snow |
|---|---|---|---|---|---|---|---|
| 1788094809 | 31.11° C | 99% | 1013 hPa | - | - | - | - |
| 1788094494 | 31.67° C | 99% | 1012.8 hPa | - | - | - | - |
| 1788094184 | 30.56° C | 99% | 1012.9 hPa | - | - | - | - |
| 1788093873 | 30.56° C | 99% | 1012.9 hPa | - | - | - | - |
| 1788093559 | 30° C | 99% | 1013.1 hPa | - | - | - | - |
| 1788093251 | 30° C | 99% | 1013 hPa | - | - | - | - |
| 1788092944 | 29.44° C | 99% | 1013.1 hPa | - | - | - | - |
| 1788092630 | 30° C | 99% | 1013.2 hPa | - | - | - | - |
| 1788092316 | 30° C | 99% | 1013.1 hPa | - | - | - | - |
| 1788092008 | 29.44° C | 99% | 1013 hPa | - | - | - | - |
| 1788091698 | 30° C | 99% | 1013.2 hPa | - | - | - | - |
| 1788091387 | 30° C | 99% | 1013.1 hPa | - | - | - | - |
| 1788091080 | 29.44° C | 99% | 1013.1 hPa | - | - | - | - |
| 1788090768 | 28.89° C | 99% | 1013.1 hPa | - | - | - | - |
| 1788090456 | 28.89° C | 99% | 1013.2 hPa | - | - | - | - |
| 1788090143 | 28.89° C | 99% | 1013.4 hPa | - | - | - | - |
| 1788089835 | 28.89° C | 99% | 1013.4 hPa | - | - | - | - |
| 1788089610 | 28.89° C | 99% | 1013.4 hPa | - | - | - | - |
| 1788089213 | 28.33° C | 99% | 1013.4 hPa | - | - | - | - |
| 1788089079 | 28.33° C | 99% | 1013.4 hPa | - | - | - | - |
| 1788088918 | 28.33° C | 99% | 1013.4 hPa | - | - | - | - |
| 1788088599 | 28.33° C | 99% | 1013.5 hPa | - | - | - | - |
| 1788088322 | 27.78° C | 99% | 1013.5 hPa | - | - | - | - |
| 1788087861 | 27.22° C | 99% | 1013.6 hPa | - | - | - | - |
| 1788087186 | 27.22° C | 99% | 1013.6 hPa | - | - | - | - |
* Rain since midnight (hover to see other rain measurements)
** Current wind speed in m/s (hover to see current wind gust speed)